Meteo Giornale » Osservazioni meteo Olanda » Maastricht Zuid Limburg
ore: 15:55 - Osservazioni Meteo Maastricht Zuid Limburg
Lat. 50° 55' N Lon. 5° 47' E Alt. 114 metri s.l.m.
21 °C
Sereno
Temp. 24 Ore
15 °C
22 °C
Ovest/Sud-Ovest
14.8 Km/h
Dew point 13 °C
Umidità 60 %
Visibilità 10 Km
Il sole sorge alle ore 06:50
Il sole tramonta alle ore 20:23
| Data e Ora | Cielo e Fenomeni | T °C | DP °C | Um. % | Pres. hPa | Vis. km | Vento km/h | |
|---|---|---|---|---|---|---|---|---|
| Oggi h: 15:55 | Sereno | 21 | 13 | 60 | 1020 | 10 | O/SO 14.8 | |
| Oggi h: 15:25 | Sereno | 20 | 14 | 68 | 1020 | 10 | O/SO 16.7 | |
| Oggi h: 14:55 | Molto Nuvoloso | 22 | 15 | 64 | 1020 | 10 | O/SO 16.7 | |
| Oggi h: 14:25 | Poco Nuvoloso | 21 | 15 | 68 | 1020 | 10 | O/SO 14.8 | |
| Oggi h: 13:55 | Sereno | 20 | 14 | 68 | 1020 | 10 | O 13 | |
| Oggi h: 13:25 | Nuvoloso | 20 | 15 | 72 | 1020 | 10 | O/SO 13 | |
| Oggi h: 12:55 | Poco Nuvoloso | 20 | 16 | 77 | 1020 | 10 | O/SO 14.8 | |
| Oggi h: 12:25 | Pioggia | 19 | 15 | 77 | 1020 | 10 | O 13 | |
| Oggi h: 11:55 | Molto Nuvoloso | 18 | 15 | 82 | 1020 | 10 | SO 16.7 | |
| Oggi h: 11:25 | Coperto | 18 | 15 | 82 | 1020 | 10 | O/SO 16.7 | |
| Oggi h: 10:55 | Coperto | 17 | 14 | 82 | 1020 | 10 | SO 18.5 | |
| Oggi h: 10:25 | Coperto | 17 | 15 | 88 | 1020 | 10 | S/SO 20.3 | |
| Oggi h: 09:55 | Coperto | 17 | 14 | 82 | 1020 | 10 | SO 18.5 | |
| Oggi h: 09:25 | Coperto | 16 | 14 | 87 | 1020 | 10 | SO 20.3 | |
| Oggi h: 08:55 | Coperto | 16 | 14 | 87 | 1019 | 10 | S/SO 18.5 | |
| Oggi h: 08:25 | Coperto | 16 | 15 | 93 | 1019 | 10 | S/SO 20.3 | |
| Oggi h: 07:55 | Coperto | 16 | 14 | 87 | 1019 | 10 | S/SO 16.7 | |
| Oggi h: 07:25 | Coperto | 16 | 14 | 87 | 1019 | 10 | S/SO 18.5 | |
| Oggi h: 06:55 | Coperto | 16 | 14 | 87 | 1019 | 10 | SO 20.3 | |
| Oggi h: 06:25 | Coperto | 16 | 14 | 87 | 1019 | 10 | SO 16.7 | |
| Oggi h: 05:55 | Coperto | 16 | 14 | 87 | 1018 | 10 | SO 16.7 | |
| Oggi h: 05:25 | Coperto | 15 | 14 | 93 | 1018 | 10 | S/SO 16.7 | |
| Oggi h: 04:55 | Coperto | 15 | 14 | 93 | 1018 | 10 | SO 16.7 | |
| Oggi h: 04:25 | Coperto | 15 | 14 | 93 | 1018 | 10 | SO 13 | |
| Oggi h: 03:55 | Coperto | 15 | 14 | 93 | 1018 | 10 | SO 16.7 | |
| Oggi h: 03:25 | Sereno | 15 | 14 | 93 | 1018 | 10 | SO 16.7 | |
| Oggi h: 02:55 | Molto Nuvoloso | 15 | 13 | 87 | 1018 | 10 | SO 18.5 | |
| Oggi h: 02:25 | Nuvoloso | 15 | 13 | 87 | 1018 | 10 | SO 18.5 | |
| Oggi h: 01:55 | Molto Nuvoloso | 16 | 14 | 87 | 1018 | 10 | SO 20.3 | |
| Oggi h: 01:25 | Sereno | 16 | 14 | 87 | 1018 | 10 | SO 18.5 | |
| Oggi h: 00:55 | Coperto | 16 | 14 | 87 | 1018 | 10 | S/SO 14.8 | |
| Oggi h: 00:25 | Sereno | 15 | 14 | 93 | 1018 | 10 | S/SO 14.8 | |
| Ieri h: 23:55 | Sereno | 16 | 14 | 87 | 1018 | 10 | SO 14.8 | |
| Ieri h: 23:25 | Sereno | 16 | 14 | 87 | 1018 | 10 | SO 14.8 | |
| Ieri h: 22:55 | Sereno | 16 | 14 | 87 | 1017 | 10 | SO 13 | |
| Ieri h: 22:25 | Pioggia | 16 | 15 | 93 | 1017 | 10 | SO 14.8 | |
| Ieri h: 21:55 | Poco Nuvoloso | 16 | 14 | 87 | 1017 | 10 | SO 14.8 | |
| Ieri h: 21:25 | Molto Nuvoloso | 17 | 14 | 82 | 1016 | 10 | SO 13 | |
| Ieri h: 20:55 | Sereno | 17 | 14 | 82 | 1016 | 10 | SO 14.8 | |
| Ieri h: 20:25 | Sereno | 17 | 14 | 82 | 1015 | 10 | SO 16.7 | |
| Ieri h: 19:55 | Poco Nuvoloso | 18 | 15 | 82 | 1015 | 10 | SO 18.5 | |
| Ieri h: 19:25 | Molto Nuvoloso | 18 | 15 | 82 | 1015 | 10 | O/SO 14.8 | |
| Ieri h: 18:55 | Sereno | 18 | 15 | 82 | 1014 | 10 | O/SO 16.7 | |
| Ieri h: 18:25 | Poco Nuvoloso | 18 | 15 | 82 | 1014 | 10 | O/SO 20.3 | |
| Ieri h: 17:55 | Pioggia | 17 | 14 | 82 | 1014 | 10 | O/SO 27.8 | |
| Ieri h: 17:25 | Sereno | 19 | 15 | 77 | 1013 | 10 | O/SO 20.3 | |
| Ieri h: 16:55 | Nuvoloso | 19 | 15 | 77 | 1013 | 10 | O 16.7 | |



